Date,TemperatureHighF,TemperatureAvgF,TemperatureLowF,DewpointHighF,DewpointAvgF,DewpointLowF,HumidityHigh,HumidityAvg,HumidityLow,PressureMaxIn,PressureMinIn,WindSpeedMaxMPH,WindSpeedAvgMPH,GustSpeedMaxMPH,PrecipitationSumIn
2013-1-4,54.6,39.1,32.7,40.2,33.5,29.5,88,81,58,30.23,30.16,0,0,0,0.01
2013-1-5,47.8,36.9,30.0,42.3,33.3,27.2,90,87,76,30.25,30.10,0,0,1,0.19
2013-1-6,55.8,44.3,34.4,49.7,40.5,31.8,92,87,71,30.18,30.11,0,0,1,0.01
2013-1-7,59.7,43.6,32.8,49.4,39.4,30.2,92,86,65,30.24,30.14,1,0,2,0.00
2013-1-8,52.6,41.1,37.3,50.0,38.6,34.9,92,91,87,30.23,30.13,0,0,0,0.01
2013-1-9,48.6,42.4,35.7,46.4,38.6,31.1,92,87,74,30.15,29.95,2,0,5,0.01
2013-1-10,53.2,39.0,31.4,35.8,31.5,26.8,90,76,46,30.17,30.05,2,0,4,0.00
2013-1-11,56.6,37.0,28.4,39.7,30.9,25.3,89,80,52,30.24,30.09,1,0,1,0.00
2013-1-12,54.5,38.9,27.6,32.1,28.4,24.3,89,69,38,30.24,30.12,1,0,2,0.00
2013-1-13,54.9,35.4,22.1,27.5,21.3,13.4,88,61,23,30.26,30.16,2,0,5,0.00
2013-1-14,62.6,43.5,29.8,29.5,20.5,11.9,82,43,23,30.39,30.23,4,0,9,0.00
2013-1-15,59.9,37.3,26.2,37.6,28.7,22.8,88,74,40,30.48,30.38,0,0,3,0.00
2013-1-16,66.6,38.7,25.9,44.5,31.4,22.9,90,77,41,30.44,30.25,0,0,1,0.00
2013-1-17,72.2,40.6,27.2,47.3,33.1,24.4,90,77,36,30.26,30.12,0,0,1,0.01
2013-1-18,73.3,40.5,28.9,42.8,30.5,25.8,88,73,23,30.22,30.13,0,0,1,0.00
2013-1-19,71.3,51.4,32.6,39.0,32.4,26.8,87,53,24,30.25,30.14,1,0,3,0.00
2013-1-20,74.7,46.0,28.7,38.0,30.3,24.8,87,61,23,30.22,30.09,0,0,1,0.00
2013-1-21,72.1,50.5,30.0,42.3,35.8,26.3,86,61,29,30.16,30.08,0,0,1,0.00
2013-1-22,69.7,42.4,29.9,40.0,31.3,25.9,87,70,29,30.10,30.01,0,0,1,0.00
2013-1-23,51.7,49.1,47.6,47.6,45.3,42.1,91,87,73,30.09,30.00,0,0,1,0.42
2013-1-24,61.1,51.8,47.4,56.4,48.8,44.9,92,89,76,30.17,30.06,0,0,1,0.04
2013-1-25,64.1,54.5,46.3,56.1,49.4,43.5,92,84,66,30.17,30.02,2,0,4,0.00
2013-1-26,50.9,46.1,41.8,48.1,43.4,39.1,91,90,88,30.02,29.97,0,0,1,0.00
2013-1-27,59.9,46.5,31.1,37.6,33.9,28.1,90,64,38,30.16,30.08,1,0,4,0.00
2013-1-28,59.6,45.7,35.2,39.9,36.0,30.8,87,70,45,30.26,30.14,2,0,5,0.00
2013-1-29,63.2,45.6,34.0,43.2,37.4,30.8,89,75,48,30.34,30.23,2,0,5,0.00
2013-1-30,72.5,52.1,38.6,50.6,42.7,35.3,89,73,45,30.32,30.22,1,0,3,0.00
2013-1-31,74.8,47.8,32.4,47.9,38.8,29.4,91,75,36,30.29,30.16,0,0,1,0.00
2013-2-1,75.6,48.7,32.8,48.7,38.7,30.1,91,73,35,30.20,30.09,2,0,3,0.00
2013-2-2,68.3,47.9,36.8,50.9,41.1,33.9,90,79,51,30.29,30.18,0,0,1,0.00
2013-2-3,69.2,47.7,37.4,51.8,42.1,34.5,91,82,52,30.23,30.10,0,0,1,0.00
2013-2-4,58.9,43.6,34.4,49.8,39.7,31.8,91,87,71,30.16,30.05,0,0,1,0.00
2013-2-5,61.9,48.1,41.6,47.6,41.6,36.6,90,79,57,30.14,30.01,3,0,6,0.00
2013-2-6,64.4,45.4,31.2,44.6,37.0,28.3,90,74,42,30.18,30.07,1,0,4,0.00
2013-2-7,55.9,44.3,35.3,47.0,37.2,31.8,91,77,49,30.14,29.98,3,0,6,0.13
2013-2-8,59.4,41.7,32.9,38.5,32.5,25.9,90,74,28,29.99,29.91,3,0,7,0.00
2013-2-9,63.3,50.3,33.8,31.8,27.8,22.2,81,47,23,30.08,29.98,2,0,7,0.00
2013-2-10,67.4,44.8,28.9,42.1,30.6,25.5,88,63,25,30.11,29.97,4,0,6,0.00
2013-2-11,70.1,51.8,36.5,38.1,31.1,24.6,82,49,24,30.22,30.06,3,0,8,0.00
2013-2-12,43.4,33.7,31.1,39.1,30.1,28.0,90,86,81,30.34,30.22,0,0,0,0.00
2013-2-13,71.5,54.0,35.1,50.0,42.8,32.5,90,68,45,30.32,30.18,0,0,3,0.00
2013-2-14,78.1,52.7,37.2,50.6,38.7,34.3,91,65,26,30.22,30.12,2,0,5,0.00
2013-2-15,81.3,50.7,39.1,47.1,39.0,33.0,84,68,27,30.24,30.17,0,0,1,0.00
2013-2-16,77.3,51.7,37.2,49.3,41.0,34.1,90,71,33,30.23,30.01,0,0,1,0.00
2013-2-17,72.9,50.8,33.2,49.0,39.1,30.0,90,67,37,30.03,29.93,0,0,2,0.00
2013-2-18,55.0,44.1,32.8,42.8,36.6,29.4,89,75,60,30.00,29.89,1,0,5,0.00
2013-2-19,50.9,41.8,32.5,42.8,34.6,28.0,89,76,51,29.92,29.71,4,0,9,0.18
2013-2-20,61.6,40.8,30.1,36.6,30.9,26.6,88,72,35,29.97,29.83,2,0,5,0.00
2013-2-23,60.7,49.0,40.1,33.6,29.9,23.1,69,50,27,30.23,30.13,2,0,3,0.00
2013-2-24,52.6,47.3,40.6,27.6,23.3,21.7,52,39,32,30.25,30.20,2,0,4,0.00
2013-2-27,75.3,57.0,34.4,43.5,38.5,27.6,79,53,30,30.33,30.22,0,0,2,0.00
2013-2-28,76.5,57.2,45.6,55.2,47.1,41.0,87,71,44,30.42,30.32,2,0,4,0.00
2013-3-1,82.5,56.6,39.7,53.9,45.9,36.7,91,71,34,30.41,30.21,1,0,3,0.00
2013-3-2,74.1,58.1,45.0,54.0,48.2,42.0,90,72,43,30.23,30.02,0,0,3,0.00
2013-3-3,74.8,58.4,50.7,51.1,47.5,43.4,86,69,42,30.06,29.96,2,0,5,0.00
2013-3-4,63.1,48.6,37.5,50.3,42.3,33.4,89,79,60,30.14,30.01,2,0,4,0.00
2013-3-5,60.9,45.5,31.8,44.9,38.6,28.9,90,78,54,30.05,29.76,1,0,3,0.23
2013-3-6,59.3,48.0,36.3,45.2,39.9,32.8,90,75,48,30.03,29.77,3,1,10,0.29
2013-3-7,56.3,44.5,33.8,43.4,36.4,30.6,90,75,52,29.99,29.85,0,0,1,0.00
2013-3-8,68.4,48.3,33.4,42.5,36.5,30.2,89,67,31,30.01,29.81,3,0,7,0.00
2013-3-9,74.0,52.2,34.6,43.8,36.6,30.5,89,62,22,30.29,30.01,3,0,5,0.00
2013-3-10,80.0,54.2,37.1,50.3,38.8,32.6,85,61,28,30.33,30.20,1,0,4,0.00
2013-3-11,43.4,39.0,36.4,36.3,34.4,32.8,88,83,76,30.24,30.21,0,0,0,0.00
2013-3-13,87.1,70.8,53.1,58.2,53.4,48.1,89,57,33,30.13,30.02,0,0,2,0.00
2013-3-14,75.9,58.7,45.8,59.0,48.5,40.1,90,71,38,30.12,30.05,2,0,5,0.00
2013-3-15,79.9,57.3,42.7,54.7,45.3,38.2,87,67,35,30.10,29.98,2,0,4,0.00
2013-3-16,79.7,57.7,40.2,52.8,43.0,36.9,90,63,27,30.07,29.96,3,0,6,0.00
2013-3-17,79.8,56.7,40.4,47.5,41.2,35.3,85,59,28,30.13,29.99,2,0,4,0.00
2013-3-18,70.7,54.7,38.9,51.0,43.5,35.4,88,68,45,30.08,29.98,0,0,3,0.00
2013-3-19,64.7,52.7,42.2,49.6,44.0,38.0,88,73,51,30.10,30.03,2,0,4,0.03
2013-3-20,57.6,51.4,46.6,54.7,48.4,43.2,91,90,87,30.10,30.03,1,0,3,0.43
2013-3-21,68.9,52.3,36.4,47.1,41.4,33.5,90,70,39,30.11,29.97,2,0,5,0.01
2013-3-23,78.7,61.7,45.7,44.7,38.2,30.5,76,45,25,30.12,29.99,1,0,3,0.00
2013-3-24,45.6,42.9,40.8,38.4,37.3,36.1,85,81,76,30.06,30.04,0,0,0,0.00
2013-3-27,57.8,52.0,47.4,49.6,45.9,42.8,84,80,74,29.99,29.95,0,0,0,0.00
2013-3-28,63.9,54.1,47.1,55.0,48.3,42.6,88,81,64,30.07,29.99,1,0,4,0.02
2013-3-29,83.2,60.1,42.2,55.4,48.5,39.2,91,69,35,30.08,29.97,1,0,5,0.00
2013-3-30,68.5,58.5,53.4,57.3,51.9,48.7,88,79,62,30.04,29.95,2,0,4,0.08
2013-3-31,61.3,55.1,51.5,58.0,51.7,48.7,91,88,78,30.05,29.97,2,0,3,0.48
2013-4-1,63.8,55.8,48.1,57.3,51.1,44.5,91,85,69,30.13,30.03,1,0,2,0.01
2013-4-2,73.5,56.0,43.4,58.0,48.3,40.7,91,77,51,30.16,30.04,2,0,4,0.00
2013-4-3,82.5,59.3,45.1,60.1,50.2,41.8,90,74,40,30.12,29.93,1,0,5,0.00
2013-4-4,64.5,55.9,50.2,61.2,51.9,47.1,91,86,77,30.09,29.95,1,0,4,0.87
2013-4-5,67.8,56.5,50.3,54.8,50.3,47.0,91,80,60,30.16,30.08,1,0,4,0.01
2013-4-6,71.0,57.7,50.9,56.0,49.9,46.8,88,76,53,30.16,30.07,2,0,6,0.00
2013-4-7,66.0,55.8,49.6,56.4,48.7,43.0,90,78,60,30.15,29.76,2,0,7,0.05
2013-4-8,72.0,56.1,41.4,44.0,36.3,23.5,81,52,18,30.02,29.76,4,1,11,0.01
2013-4-9,78.3,61.1,43.4,43.0,36.0,29.2,77,44,17,30.10,30.01,4,1,9,0.00
2013-4-10,90.1,69.1,51.5,57.8,48.5,39.8,73,50,29,30.15,29.97,2,0,4,0.00
2013-4-11,62.8,58.9,54.9,49.1,47.6,45.9,72,66,61,30.01,29.97,2,1,5,0.00
2013-4-17,71.1,63.3,52.0,32.6,28.8,24.6,46,28,18,30.26,30.16,4,1,10,0.00
2013-4-18,84.5,62.8,44.5,46.4,37.7,29.8,66,42,22,30.23,30.13,2,0,5,0.00
2013-4-19,87.0,63.7,43.7,56.8,46.4,38.9,85,57,32,30.21,30.02,2,0,8,0.00
2013-4-20,86.7,66.1,48.1,52.8,44.0,38.5,74,49,21,30.09,29.92,2,0,7,0.00
2013-4-21,91.0,67.4,45.9,56.7,46.1,40.3,84,52,20,30.00,29.88,2,0,5,0.00
2013-4-22,91.4,70.6,52.2,54.9,44.6,32.8,79,46,14,29.94,29.80,2,0,6,0.00
2013-4-23,89.3,71.5,53.0,47.7,34.8,22.7,65,28,16,29.91,29.79,2,0,5,0.00
2013-4-24,82.4,58.7,43.0,57.6,45.9,38.2,85,65,40,29.92,29.78,1,0,4,0.00
2013-4-25,72.8,56.3,47.9,52.7,46.2,42.7,82,70,48,30.09,29.92,2,0,7,0.00
2013-4-26,84.0,59.2,43.6,60.0,47.9,39.7,88,69,39,30.19,30.08,1,0,4,0.00
2013-4-27,89.0,62.5,46.6,62.8,49.8,41.7,87,66,31,30.20,30.02,1,0,2,0.00
2013-4-28,94.7,66.8,45.8,62.9,51.8,41.9,88,62,32,30.04,29.83,1,0,3,0.00
2013-4-29,94.3,73.1,53.1,59.8,52.5,47.3,81,52,28,29.87,29.71,2,0,4,0.00
2013-4-30,86.1,70.9,51.8,51.1,36.1,21.5,78,37,11,29.86,29.75,3,1,6,0.00
2013-5-1,87.0,74.6,64.8,39.8,29.3,21.5,31,19,13,30.05,29.85,4,1,12,0.00
2013-5-2,96.6,74.9,56.2,50.5,37.6,27.3,50,27,16,30.13,30.02,1,0,4,0.00
2013-5-3,97.5,70.8,47.3,55.1,43.2,36.3,70,41,19,30.04,29.75,1,0,6,0.00
2013-5-4,94.6,71.6,53.2,52.6,43.5,34.5,80,42,16,29.76,29.50,2,0,6,0.00
2013-5-5,66.3,59.6,53.7,51.3,48.2,46.1,78,66,57,29.79,29.58,2,0,6,0.00
2013-5-6,70.2,59.0,49.9,53.8,49.7,44.9,85,72,50,29.94,29.79,2,0,3,0.00
2013-5-7,74.1,63.3,56.1,56.0,50.8,47.4,81,65,48,30.00,29.93,2,0,9,0.00
2013-5-8,71.6,59.5,51.6,55.8,50.0,45.3,84,72,54,30.10,29.99,2,0,6,0.00
2013-5-9,81.2,61.9,47.8,58.8,50.5,43.5,86,68,44,30.13,30.01,1,0,5,0.00
2013-5-10,86.8,64.6,50.2,62.5,52.5,45.6,85,67,44,30.15,30.03,1,0,4,0.00
2013-5-11,95.1,68.5,48.6,66.5,54.0,44.6,87,63,35,30.12,29.98,2,0,3,0.00
2013-5-12,92.1,68.7,48.0,62.3,52.2,43.5,87,59,27,30.10,29.95,1,0,5,0.00
2013-5-13,92.0,68.4,47.8,64.9,53.5,43.2,86,61,39,30.04,29.88,1,0,3,0.00
2013-5-14,87.9,70.0,50.8,61.2,53.9,46.0,86,59,39,29.93,29.84,1,0,4,0.00
2013-5-15,81.9,63.2,44.7,53.3,47.2,40.5,86,59,32,30.00,29.90,2,0,4,0.00
2013-5-16,75.9,63.2,54.6,55.4,48.9,44.5,71,60,44,29.97,29.88,3,1,14,0.00
2013-5-17,76.3,60.6,45.4,53.8,45.0,40.1,84,59,36,30.03,29.92,2,0,14,0.00
2013-5-18,84.8,63.9,43.0,53.2,46.4,38.4,86,57,29,30.09,29.99,2,0,10,0.00
2013-5-19,88.3,68.7,49.4,51.2,44.8,38.1,77,47,20,30.10,29.92,2,0,6,0.00
2013-5-20,93.1,75.6,57.4,53.0,44.1,38.6,59,35,19,29.97,29.83,3,0,7,0.00
2013-5-21,77.7,63.7,51.5,50.2,44.3,36.2,76,51,32,29.94,29.84,4,1,6,0.00
2013-5-22,74.3,56.8,38.9,41.9,35.3,29.2,72,47,25,30.00,29.84,2,0,6,0.00
2013-5-23,77.9,58.8,43.4,47.6,40.8,36.6,77,54,31,29.96,29.87,2,0,5,0.00
2013-5-24,81.8,62.1,45.0,49.4,43.1,37.9,77,52,29,29.96,29.85,2,0,6,0.00
2013-5-25,79.7,60.9,42.8,52.2,44.7,37.4,83,58,36,29.97,29.89,2,0,6,0.00
2013-5-26,77.0,62.7,48.9,55.1,48.3,43.1,83,61,36,30.06,29.97,3,1,10,0.00
2013-5-27,65.8,58.0,51.2,54.9,49.3,43.1,88,73,64,30.07,29.96,1,0,5,0.05
2013-5-28,79.1,65.7,53.8,58.7,54.5,50.6,90,69,48,29.97,29.86,2,0,6,0.00
2013-5-29,82.2,67.9,56.9,56.1,51.0,46.1,73,56,38,29.91,29.82,2,0,6,0.00
2013-5-30,87.2,66.7,49.3,52.4,46.9,43.1,80,52,27,29.95,29.86,2,0,7,0.00
2013-5-31,95.0,73.2,50.0,56.6,49.4,42.7,77,47,23,29.98,29.84,2,0,7,0.00
2013-6-1,97.7,75.9,52.4,61.0,52.1,45.7,79,47,27,29.89,29.72,2,0,7,0.00
2013-6-2,93.7,71.7,53.7,62.7,53.1,45.5,77,54,35,29.74,29.60,1,0,4,0.00
2013-6-3,82.2,64.2,51.7,60.0,51.7,46.7,86,66,45,29.83,29.69,3,0,7,0.00
2013-6-4,77.0,61.1,49.2,55.7,50.3,44.6,87,69,46,29.93,29.82,3,1,7,0.00
2013-6-5,87.4,65.6,52.9,62.2,52.7,47.6,82,65,41,29.97,29.83,1,0,5,0.00
2013-6-6,91.0,66.8,51.6,63.9,53.5,46.6,84,65,39,29.92,29.77,1,0,3,0.00
2013-6-7,98.8,73.3,51.3,68.5,57.7,46.6,86,62,35,29.85,29.66,0,0,3,0.00
2013-6-8,103.8,75.8,59.0,70.9,60.0,50.8,85,61,34,29.76,29.62,1,0,3,0.00
2013-6-9,71.7,62.0,55.9,56.4,52.6,49.9,82,72,57,29.84,29.76,2,1,5,0.00
2013-6-10,61.6,58.0,53.7,55.6,52.6,49.5,87,82,76,29.94,29.73,3,0,4,0.08
2013-6-11,85.0,66.4,49.6,61.2,54.1,45.9,89,67,41,29.95,29.83,1,0,4,0.00
2013-6-12,88.3,67.0,45.6,54.8,46.5,41.1,86,53,22,29.93,29.84,2,0,5,0.00
2013-6-13,87.2,68.5,49.5,52.1,45.9,39.7,70,47,25,30.04,29.93,4,0,4,0.00
2013-6-14,95.7,74.8,54.4,52.2,45.1,36.0,70,39,17,29.96,29.76,2,0,4,0.00
2013-6-15,80.0,57.9,49.4,57.9,48.6,44.1,84,72,46,29.88,29.80,1,0,3,0.00
2013-6-18,78.0,68.1,57.4,51.7,47.1,43.1,60,48,30,29.94,29.88,3,1,11,0.00
2013-6-19,82.2,65.7,49.4,50.9,46.5,42.0,78,52,30,30.02,29.92,2,0,7,0.00
2013-6-20,87.3,68.4,49.5,55.4,46.3,42.2,78,49,25,29.97,29.85,2,0,6,0.00
2013-6-21,90.3,70.4,48.9,55.7,48.7,41.7,79,50,26,29.94,29.84,1,0,6,0.00
2013-6-22,95.5,73.3,50.6,60.3,50.1,44.3,80,49,22,29.89,29.75,2,0,6,0.00
2013-6-23,72.3,64.8,57.3,60.6,54.9,49.4,81,71,54,29.81,29.76,2,0,7,0.00
2013-6-24,63.9,60.1,57.4,58.2,54.6,51.6,89,82,72,29.88,29.75,0,0,2,0.05
2013-6-25,66.1,62.6,58.3,63.3,59.7,55.1,91,90,89,29.95,29.85,0,0,2,0.82
2013-6-26,81.1,69.9,62.7,67.8,62.3,59.6,91,78,54,30.02,29.94,1,0,6,0.00
2013-6-27,93.3,75.3,57.8,68.6,62.2,54.6,90,67,38,30.04,29.94,2,0,5,0.00
2013-6-28,103.0,82.2,61.7,72.4,62.6,55.0,89,57,26,29.99,29.82,2,0,5,0.00
2013-6-29,108.2,84.0,60.5,72.0,62.2,54.7,84,52,28,29.87,29.72,2,0,4,0.00
2013-6-30,102.4,79.6,60.9,71.2,63.1,56.0,85,60,36,29.80,29.68,0,0,3,0.00
2013-7-1,103.2,77.4,59.0,71.6,62.4,54.6,88,63,35,29.80,29.74,0,0,3,0.00
2013-7-2,97.6,77.5,64.3,70.4,61.8,57.5,82,60,39,29.87,29.77,1,0,5,0.00
2013-7-3,101.8,78.2,61.6,72.1,62.1,55.3,82,60,37,29.87,29.68,1,0,4,0.00
2013-7-4,101.8,80.6,66.1,71.9,63.8,56.1,80,59,37,29.75,29.59,1,0,3,0.00
2013-7-5,83.7,69.4,56.2,60.6,54.1,46.5,81,60,45,29.72,29.63,1,0,5,0.00
2013-7-6,84.9,65.5,56.7,61.8,54.3,50.7,81,69,45,29.78,29.68,1,0,3,0.00
2013-7-7,91.1,69.3,56.7,62.6,55.9,51.8,85,66,32,29.82,29.71,1,0,3,0.00
2013-7-8,92.3,67.8,52.1,60.7,53.8,47.7,86,65,29,29.93,29.82,1,0,3,0.00
2013-7-9,99.3,75.5,51.8,61.9,54.2,47.5,87,53,23,29.99,29.86,1,0,3,0.00
2013-7-10,92.1,71.8,54.2,64.3,53.4,36.6,84,57,20,29.94,29.81,1,0,3,0.00
2013-7-11,87.5,64.8,52.0,61.0,52.5,46.3,83,67,40,29.93,29.79,1,0,5,0.00
2013-7-12,87.5,65.6,53.5,62.7,54.3,49.3,86,69,42,29.92,29.79,1,0,3,0.00
2013-7-13,92.8,69.7,53.8,61.8,55.4,49.3,87,64,35,29.93,29.83,1,0,2,0.00
2013-7-14,91.4,68.2,50.5,64.2,54.7,46.2,86,65,39,29.97,29.82,0,0,3,0.00
2013-7-15,86.5,63.5,51.4,61.2,51.4,46.2,85,67,41,29.90,29.75,2,0,4,0.00
2013-7-16,77.8,62.0,53.9,57.7,51.6,47.2,81,70,48,29.98,29.83,2,0,6,0.00
2013-7-17,91.2,67.1,50.4,64.9,55.0,46.2,87,68,40,30.07,29.95,1,0,5,0.00
2013-7-18,94.0,69.2,51.6,65.3,55.8,46.9,88,66,38,30.03,29.86,0,0,5,0.00
2013-7-19,96.3,70.4,55.5,67.2,57.3,51.3,87,66,37,29.92,29.75,0,0,2,0.00
2013-7-20,93.8,69.3,56.9,65.8,56.9,52.1,85,67,39,29.82,29.67,0,0,2,0.00
2013-7-21,92.4,69.6,57.2,64.7,56.4,52.3,85,66,39,29.84,29.70,0,0,3,0.00
2013-7-22,92.2,70.5,54.4,64.7,55.8,49.4,85,63,35,29.92,29.84,1,0,3,0.00
2013-7-23,87.5,73.6,63.1,63.7,54.3,38.0,74,53,25,29.96,29.88,1,0,4,0.00
2013-7-24,98.7,76.2,57.4,66.6,56.1,50.5,82,53,28,29.94,29.82,2,0,4,0.00
2013-7-25,94.7,73.0,57.8,65.8,56.1,50.6,79,57,38,29.97,29.86,0,0,5,0.00
2013-7-26,66.5,56.9,53.2,54.1,49.9,48.2,84,78,62,30.05,29.96,0,0,1,0.00
2013-7-30,66.7,62.3,58.2,54.4,52.5,50.1,75,70,64,30.02,29.99,0,0,0,0.00
2013-7-31,88.8,65.7,52.8,62.3,52.9,48.1,85,66,41,30.06,29.90,1,0,5,0.00
2013-8-1,87.6,65.9,47.4,59.9,52.1,42.9,87,64,37,30.01,29.90,1,0,3,0.00
2013-8-2,56.9,51.8,48.1,50.3,46.7,43.9,86,83,78,29.93,29.89,0,0,0,0.00
2013-8-3,87.8,71.7,57.5,62.1,56.6,51.7,82,61,42,29.95,29.84,0,0,3,0.00
2013-8-4,85.3,63.8,53.2,61.6,53.1,48.6,87,70,44,29.98,29.88,1,0,2,0.00
2013-8-5,88.7,64.9,52.4,61.9,53.2,47.9,85,68,40,30.00,29.86,0,0,3,0.00
2013-8-6,84.8,62.3,51.4,59.9,51.7,46.6,86,70,41,30.00,29.90,2,0,5,0.00
2013-8-7,78.4,62.8,54.8,58.6,53.1,49.1,83,72,49,30.06,29.99,2,0,6,0.00
2013-8-8,85.7,65.6,55.3,60.8,54.0,49.2,83,68,41,30.00,29.87,2,0,7,0.00
2013-8-9,86.4,63.6,53.7,61.3,52.8,48.6,86,70,41,29.96,29.85,1,0,5,0.00
2013-8-10,90.5,66.2,54.4,62.7,54.5,49.2,84,68,38,30.01,29.92,2,0,3,0.00
2013-8-11,91.7,67.1,54.2,64.0,54.5,49.1,87,67,32,30.00,29.86,2,0,4,0.00
2013-8-12,92.0,66.8,50.7,64.0,53.8,46.0,87,66,31,29.97,29.86,1,0,3,0.00
2013-8-13,99.8,71.3,51.2,61.5,53.2,46.2,85,58,26,29.96,29.83,2,0,5,0.00
2013-8-14,96.1,71.9,52.1,64.0,55.4,47.2,86,59,34,29.94,29.81,0,0,4,0.00
2013-8-15,98.0,73.6,54.3,66.7,58.9,49.9,87,63,34,29.92,29.83,2,0,9,0.00
2013-8-16,97.3,75.4,60.5,66.6,58.9,48.6,87,61,31,29.94,29.86,2,0,7,0.00
2013-8-17,84.6,70.4,54.8,63.7,57.4,49.7,85,65,47,29.95,29.79,0,0,3,0.00
2013-8-18,98.8,75.8,58.5,68.0,59.7,53.6,87,62,31,29.86,29.71,1,0,4,0.00
2013-8-19,94.8,74.8,62.9,68.1,60.5,56.4,81,63,36,29.87,29.74,2,0,5,0.00
2013-8-20,93.7,71.3,59.2,66.9,57.6,52.1,83,64,40,29.85,29.74,2,0,4,0.00
2013-8-21,86.2,67.5,56.6,59.5,53.9,46.8,85,64,38,29.90,29.78,2,0,4,0.00
2013-8-22,84.8,64.7,52.3,59.4,52.5,45.8,84,66,40,29.94,29.81,2,0,4,0.00
2013-8-23,89.2,66.8,51.7,63.3,54.8,47.0,87,68,41,29.90,29.74,0,0,4,0.00
2013-8-24,88.7,67.8,51.1,61.1,54.5,47.1,88,65,38,29.84,29.76,3,0,10,0.00
2013-8-25,84.4,69.1,56.4,63.3,57.1,51.6,86,67,46,29.90,29.83,2,0,6,0.00
2013-8-26,93.7,69.9,57.0,62.6,55.7,50.9,84,64,34,29.97,29.83,2,0,5,0.00
2013-8-27,94.0,70.0,51.2,61.0,53.4,46.7,86,59,30,29.87,29.74,2,0,5,0.00
2013-8-28,85.2,63.7,51.9,62.0,53.5,47.5,87,72,44,29.88,29.80,0,0,2,0.00
2013-8-30,100.8,81.6,56.8,66.4,60.0,52.7,88,51,29,30.00,29.84,1,0,4,0.00
2013-8-31,96.4,72.6,54.3,63.7,55.1,48.9,85,58,29,29.93,29.81,1,0,3,0.00
2013-9-1,82.8,63.5,58.4,59.3,53.8,52.5,82,72,42,29.90,29.86,1,0,2,0.00
2013-9-4,92.2,77.5,61.4,59.7,56.4,52.1,72,50,29,29.98,29.85,3,0,6,0.00
2013-9-5,90.8,68.9,50.8,56.7,51.9,46.6,88,59,27,29.96,29.86,2,0,5,0.00
2013-9-6,100.4,73.4,52.1,57.3,50.7,46.3,83,51,20,29.95,29.78,1,0,4,0.00
2013-9-7,103.1,74.9,51.9,59.1,49.6,44.9,79,46,20,29.84,29.74,2,0,7,0.00
2013-9-8,103.8,74.1,52.0,65.2,52.4,45.5,82,51,24,29.85,29.69,1,0,4,0.00
2013-9-9,104.0,74.1,53.5,62.0,54.1,47.5,82,55,22,29.78,29.63,2,0,5,0.00
2013-9-10,85.9,66.3,56.7,63.1,55.8,50.9,84,70,45,29.87,29.68,2,0,5,0.00
2013-9-11,79.3,66.3,61.8,61.7,57.4,55.6,82,74,52,29.96,29.86,2,0,4,0.00
2013-9-12,93.1,70.0,59.6,66.2,58.2,53.8,83,69,38,29.95,29.80,2,0,6,0.00
2013-9-13,91.8,68.5,57.5,65.5,56.4,51.2,86,68,41,29.87,29.68,0,0,2,0.00
2013-9-14,89.3,65.4,51.2,63.7,54.2,46.8,88,70,42,29.79,29.66,0,0,3,0.00
2013-9-15,86.9,65.4,50.7,60.6,53.7,46.1,87,68,38,29.82,29.74,3,0,9,0.00
2013-9-16,91.9,68.4,53.6,63.5,55.1,49.2,89,66,35,29.86,29.70,2,0,6,0.00
2013-9-17,84.6,65.8,51.1,56.1,51.1,46.5,88,62,36,29.85,29.75,2,0,6,0.00
2013-9-18,90.5,68.4,51.5,52.2,46.8,41.1,79,51,21,29.88,29.75,3,0,7,0.00
2013-9-19,97.1,66.3,46.3,55.3,42.9,30.2,82,49,21,29.83,29.69,2,0,7,0.00
2013-9-20,80.6,63.4,44.2,60.6,49.4,30.6,79,61,43,29.80,29.73,3,0,7,0.00
2013-9-21,71.9,61.8,52.4,60.2,55.3,48.1,90,80,52,29.86,29.74,2,0,11,0.40
2013-9-22,79.4,60.7,46.8,55.8,49.5,43.7,90,70,35,29.98,29.86,2,0,6,0.00
2013-9-23,90.1,63.3,49.4,60.7,52.8,45.8,89,71,37,30.00,29.86,3,0,9,0.00
2013-9-24,83.0,64.4,52.9,54.4,50.5,45.0,87,64,35,29.94,29.82,3,0,6,0.00
2013-9-25,75.2,59.8,50.7,46.7,44.5,41.3,76,59,32,29.90,29.76,2,0,7,0.00
2013-9-26,79.6,61.2,47.6,41.5,38.5,35.7,75,45,25,29.90,29.82,2,0,5,0.00
2013-9-29,70.5,70.5,70.5,59.8,59.8,59.8,69,69,69,30.01,30.01,0,0,0,0.00
2013-9-30,64.6,64.5,64.4,61.6,61.3,61.1,90,90,89,30.02,30.02,0,0,0,0.01
2013-10-1,80.4,78.5,76.0,53.5,51.8,49.9,41,40,37,29.89,29.87,1,0,4,0.00
2013-10-3,72.5,57.3,42.1,35.7,34.6,32.5,78,51,24,30.04,29.98,9,2,9,0.00
2013-10-6,86.5,85.7,85.5,42.9,42.2,39.8,22,22,21,30.00,30.00,3,0,3,0.00
2013-10-12,77.5,64.2,49.8,53.2,46.6,41.0,77,55,29,29.97,29.83,7,0,7,0.00
2013-10-13,54.6,52.0,49.2,43.2,42.6,41.4,75,70,66,29.90,29.89,7,0,7,0.00